Location: Dealu Mare
(46.0500°N, 22.8167°E)
Time: 14:49:32
(UTC+00:00)

Cosmos 2074 Rocket - Pass Details

Date: 15 January 2026
Orbit: 965 x 986 km, 82.9° (Epoch: 18 February)

Event Time Altitude Azimuth Distance (km) Brightness Sun altitude
Rises 03:57:00 0° 183° (S) 3,680 7.1 -22.0°
Reaches altitude 10° 03:59:30 10° 183° (S) 2,736 6.4 -21.6°
Maximum altitude 04:05:47 83° 96° (E) 1,000 4.0 -20.5°
Drops below altitude 10° 04:12:07 10° 10° (N) 2,751 6.4 -19.4°
Sets 04:14:38 0° 10° (N) 3,702 7.0 -19.0°
